Terminal Aerodrome Forecast
Issued by NWS

Home | Current Version | Previous Version | Text Only | Print | Product List | Glossary On
Versions: 1 2 3 4 5 6 7 8 9 10 11 12 13 14 15 16 17 18
000
FTUS43 KSGF 160700 AAA
TAFBBG
TAF AMD
KBBG 160716Z 1607/1706 32004KT P6SM FEW015 BKN050
     FM160900 36004KT 4SM BR SCT003 BKN007 OVC015
     FM161600 08005KT P6SM BKN250
     FM170100 15002KT P6SM SCT250=

USA.gov is the U.S. government's official web portal to all federal, state and local government web resources and services.